Location: Table Mountain
(47.2500°N, 120.5778°W)
Time: 09:29:46
(UTC-08:00)

Envisat - Pass Details

Date: 14 October 2017
Orbit: 764 x 766 km, 98.2° (Epoch: 17 December)

Event Time Altitude Azimuth Distance (km) Brightness Sun altitude
Exits shadow 19:00:15 10° 86° (E) 2,293 4.8 -8.3°
Maximum altitude 19:02:44 14° 56° (NE) 2,035 4.7 -8.7°
Drops below altitude 10° 19:05:18 10° 25° (NNE) 2,312 5.2 -9.2°
Sets 19:08:41 0° 2° (N) 3,244 6.2 -9.7°
